Tracking 30995 objects as of 5-Jul-2025
HD Live streaming from Space Station
objects crossing your sky now

COSMOS 2251 DEB

Track COSMOS 2251 DEB now!
10-day predictions


NORAD ID: 40238
Int'l Code: 1993-036BVT
Perigee: 756.9 km
Apogee: 1,591.6 km
Inclination: 74.0 °
Period: 108.7 minutes
Semi major axis: 7545 km
RCS: Unknown
Launch date: June 16, 1993
Source: Commonwealth of Independent States (former USSR) (CIS)
Launch site: PLESETSK MISSILE AND SPACE COMPLEX (PKMTR)

Note: This is SATELLITE DEBRIS
Your satellite tracking list
Your tracking list is empty




NASA's NSSDC Master Catalog

Two Line Element Set (TLE):
1 40238U 93036BVT 25181.72280272  .00000690  00000-0  72631-3 0  9992
2 40238  73.9795 316.8371 0553108 321.6019  34.6885 13.24628815518516
Source of the keplerian elements: AFSPC